EHI
0 0 0 0 0 0 0 0 0 0 0 0 0 1 1 1 1 4 7 10 12 12 9 8 8 8 7 6 5 4 4 5 5 5 3 1 0 0 0 0 0 0 0 0
0 0 0 0 0 0 0 0 0 0 0 0 0 0 0 1 2 4 7 10 11 11 10 9 9 9 9 7 5 4 4 5 6 6 5 2 0 0 0 0 0 0 1 1
0 0 0 0 0 0 0 0 0 0 0 0 0 0 0 0 2 4 7 8 9 9 9 9 10 11 11 10 8 6 5 6 7 7 6 3 2 1 1 1 1 1 2 2
0 0 0 0 0 0 0 0 0 0 0 0 0 0 0 0 2 3 5 5 5 6 8 8 10 11 13 13 10 8 7 6 7 8 7 5 5 4 3 2 2 3 3 4
0 0 0 0 0 0 0 0 0 0 0 0 0 0 0 0 1 1 2 2 2 3 6 8 9 11 12 12 11 9 7 6 6 6 7 6 6 5 5 5 4 4 4 5
0 0 0 0 0 0 0 0 0 0 0 0 0 0 0 0 0 0 0 0 1 1 4 7 9 10 11 10 10 9 7 5 5 6 6 6 6 7 8 8 7 6 6 6
0 0 0 0 0 0 0 0 0 0 0 0 0 0 0 0 0 0 0 0 1 1 3 7 9 10 10 10 9 8 7 7 6 6 6 6 7 8 9 9 9 8 7 7
0 0 0 0 0 0 0 0 0 0 0 0 0 0 0 0 0 0 0 0 1 2 3 6 9 10 11 10 9 9 9 10 8 7 6 6 7 8 9 9 9 9 9 9
0 0 0 0 0 0 0 0 0 0 0 0 0 0 0 0 0 0 0 1 2 4 5 6 8 10 12 13 12 12 13 13 12 9 7 6 6 6 7 8 9 9 9 9
0 0 0 0 0 0 0 0 0 0 0 0 0 0 0 0 0 1 2 4 6 7 7 6 7 10 13 15 16 15 14 14 14 13 10 8 6 6 6 7 7 7 6 6
0 0 0 0 0 0 0 0 0 0 0 0 0 0 0 0 1 2 5 8 9 8 7 7 8 12 15 18 17 15 12 12 14 15 14 11 9 8 7 7 8 7 4 2
0 0 0 0 0 0 0 0 0 0 0 0 0 0 0 1 2 4 6 8 8 7 7 7 10 15 19 18 16 13 11 10 11 14 15 15 13 12 10 9 8 6 3 2
0 0 0 0 0 0 0 0 0 0 0 0 0 0 0 1 2 4 5 7 7 6 6 7 11 17 19 17 15 14 12 11 11 12 13 14 14 13 12 10 7 4 2 1
0 0 0 0 0 0 0 0 0 0 0 0 0 0 0 0 2 3 5 6 7 7 6 7 11 16 18 17 15 15 15 14 13 12 11 11 11 10 10 9 5 2 1 0
0 0 0 0 0 0 0 0 0 0 0 0 0 0 0 0 1 3 5 7 8 9 8 7 9 14 17 16 15 15 15 15 15 14 11 9 8 7 7 7 5 1 0 0
0 0 0 0 0 0 0 0 0 0 0 0 0 0 0 0 1 1 3 6 8 10 10 8 8 10 13 15 14 15 14 15 16 15 11 8 6 5 5 6 5 2 0 0
0 0 0 0 0 0 0 0 0 0 0 0 0 0 1 1 1 1 2 5 9 10 11 10 8 7 9 11 12 13 14 15 15 13 9 7 5 4 5 6 5 3 2 1
0 0 0 0 0 0 0 0 0 0 0 0 0 1 2 2 2 2 4 7 10 10 10 10 8 6 6 8 9 11 13 14 14 11 9 7 6 5 6 6 5 5 5 4
0 0 0 0 0 0 0 0 0 0 0 0 0 1 3 4 4 4 5 7 8 8 7 7 7 7 7 8 9 11 13 14 13 13 11 10 8 7 7 6 6 6 6 6
0 0 0 0 0 0 0 0 0 0 0 0 1 3 4 4 4 4 4 4 4 4 4 5 6 7 7 7 9 11 12 13 13 13 13 11 10 9 9 8 6 6 6 6
0 0 0 0 0 0 0 0 0 0 0 1 2 3 3 3 2 2 2 2 2 2 3 4 6 6 5 6 8 9 10 11 12 12 12 11 10 9 9 7 7 6 6 6
0 0 0 0 0 0 0 0 0 0 0 1 2 2 1 1 0 0 1 1 0 1 3 4 5 4 3 4 5 6 7 9 11 11 11 11 10 10 8 7 6 6 6 6
0 0 0 0 0 0 0 0 0 0 0 0 1 1 0 0 0 0 0 0 0 0 1 3 3 2 1 1 1 2 3 7 9 10 10 11 10 8 6 5 5 5 6 6
0 0 0 0 0 0 0 0 0 0 0 0 0 0 0 0 0 0 0 0 0 0 0 1 1 1 0 0 0 0 1 4 6 8 9 9 8 6 4 2 3 4 4 4
0 0 0 0 0 0 0 0 0 0 0 0 1 1 0 0 0 0 0 0 0 0 0 0 0 0 0 0 0 0 1 2 4 6 7 8 7 5 3 2 2 2 3 3
0 0 0 0 0 0 0 0 0 0 0 1 2 2 1 0 0 0 0 0 0 0 0 0 0 0 0 0 0 0 0 2 4 6 6 7 8 6 4 3 2 2 2 3
Wind_Speed
3 4 3 7 6 4 3 2 2 4 2 1 1 1 2 1 3 4 4 4 5 5 3 3 3 3 4 3 4 4 3 3 3 2 2 1 1 0 0 1 1 1 1 2
4 3 7 4 4 4 3 2 2 3 1 2 1 1 2 2 4 6 6 6 6 4 2 3 3 3 4 4 4 4 4 4 3 2 2 1 1 1 0 0 0 1 1 2
6 5 3 5 4 4 3 5 4 3 2 3 2 3 2 2 1 2 4 5 4 6 5 4 4 4 4 4 4 4 4 4 4 4 3 2 2 1 1 1 1 0 1 1
4 4 3 4 4 6 5 5 5 3 3 1 1 2 5 3 2 2 3 4 4 4 4 4 4 4 5 5 4 4 4 4 4 4 4 4 2 1 1 1 0 0 0 1
5 4 4 5 6 7 5 2 4 3 3 1 1 1 6 1 3 5 5 5 5 4 5 5 5 5 5 4 4 4 4 3 4 4 5 4 2 1 0 0 0 0 0 0
4 3 5 6 3 5 4 6 6 5 5 0 3 3 6 4 5 4 5 5 5 4 5 4 4 3 3 3 3 3 4 3 3 4 4 4 4 2 1 1 1 1 0 1
3 3 2 3 3 2 5 6 4 3 2 5 2 3 7 5 4 5 5 5 4 4 4 4 4 4 4 5 4 4 4 3 3 4 3 3 3 3 3 3 2 1 1 1
3 5 4 3 6 6 5 8 8 5 5 4 1 4 6 3 2 2 3 3 3 3 3 4 4 4 4 5 4 4 4 4 3 3 2 2 2 2 2 2 2 2 2 2
5 5 3 3 3 9 6 4 5 7 2 1 3 5 6 1 1 1 2 3 3 3 4 4 4 4 5 5 5 5 5 3 3 3 2 1 1 1 1 1 1 1 2 1
6 3 4 2 3 2 6 8 6 6 5 2 3 4 5 5 4 3 3 4 4 3 3 3 3 4 4 4 4 3 3 3 2 2 2 2 1 1 1 1 1 1 1 1
4 3 3 1 3 5 4 4 5 5 5 6 3 7 6 7 6 6 5 5 5 5 5 4 3 3 3 3 3 3 3 2 2 2 2 2 1 1 1 1 0 0 0 1
3 5 2 5 3 2 4 6 7 6 4 4 4 7 3 3 4 5 4 4 4 4 4 4 4 4 4 4 3 3 3 2 2 2 2 2 1 1 2 1 1 1 1 1
5 5 2 4 4 2 2 3 4 5 5 5 4 7 1 1 2 3 4 4 4 3 3 3 3 4 4 4 3 3 3 3 2 2 2 2 1 1 1 1 1 1 1 1
5 4 6 8 7 3 2 2 3 5 4 5 7 6 3 2 3 3 3 3 3 3 4 4 4 4 4 4 4 3 3 3 3 3 3 2 1 1 1 1 1 1 1 1
4 3 3 4 3 3 3 4 4 5 7 8 7 7 8 7 6 5 4 4 3 3 3 4 5 4 4 3 3 3 3 3 3 4 3 2 1 1 1 1 1 1 1 1
3 3 2 2 2 1 2 3 4 5 4 5 4 7 5 3 3 4 5 6 5 4 4 4 5 4 4 4 4 4 4 3 4 4 3 2 2 2 2 1 2 2 2 2
1 4 3 2 2 1 4 5 4 3 3 6 8 7 5 5 6 7 7 7 7 6 5 5 5 5 5 5 5 5 4 4 4 4 3 2 2 2 1 1 2 1 1 1
5 4 3 2 2 5 7 2 3 3 4 4 4 4 7 7 5 3 5 7 6 5 5 5 5 5 4 4 4 4 4 4 4 4 3 2 2 2 1 1 1 0 0 1
4 6 4 3 2 5 4 2 2 3 4 3 4 4 4 4 3 1 2 5 6 5 5 5 4 4 4 4 5 5 4 4 4 3 3 3 3 2 2 1 1 1 1 0
3 4 5 4 3 6 6 3 1 2 4 4 4 5 5 6 3 4 3 4 4 4 4 4 4 4 4 4 5 6 5 5 4 4 3 3 2 3 2 2 1 1 1 1
2 2 3 4 3 6 4 3 1 4 7 3 3 5 7 6 5 3 4 3 4 4 4 5 5 4 4 4 6 6 5 5 4 3 3 2 2 2 2 1 1 1 0 0
4 4 3 4 3 7 3 1 4 6 3 1 2 3 5 4 3 3 4 4 3 3 3 4 4 3 3 4 6 5 5 4 3 3 3 2 2 1 1 1 1 0 1 0
3 5 5 6 6 4 2 2 3 1 1 1 1 2 4 5 3 3 3 3 3 3 3 3 4 3 2 3 5 5 4 3 4 3 3 2 2 1 1 2 1 1 1 1
2 1 2 2 4 3 3 2 2 1 1 1 1 2 4 5 4 3 3 3 3 2 3 3 4 4 3 3 3 4 3 4 4 4 3 2 2 1 1 1 1 1 1 1
3 1 1 2 3 3 3 3 2 2 2 2 2 2 3 5 4 4 3 3 3 2 2 3 4 5 4 3 3 3 3 4 4 4 3 2 2 2 1 1 1 2 3 3
3 4 4 5 5 3 4 3 1 1 1 1 2 2 2 3 4 4 3 2 2 3 2 3 3 3 3 3 3 3 3 5 5 3 2 2 2 2 2 1 1 1 3 3
Wind_Direction
77 87 188 205 189 176 158 170 249 266 266 109 160 221 270 205 163 185 200 201 202 210 202 165 153 143 142 148 153 165 154 145 136 130 137 137 160 140 71 240 227 188 166 165
59 238 221 182 163 151 158 192 252 294 345 121 140 277 258 190 194 201 202 206 205 196 159 161 156 153 160 165 169 167 164 155 152 154 146 142 138 144 168 327 334 186 174 171
180 230 175 148 158 165 208 193 209 217 10 44 78 340 309 274 227 201 208 209 203 191 181 176 172 174 169 177 182 179 171 158 154 142 113 88 60 42 39 17 345 299 184 168
218 244 164 165 191 169 238 220 186 165 112 316 75 282 286 271 276 235 224 215 213 203 182 176 171 176 184 188 176 164 160 153 148 140 141 151 159 181 218 219 230 296 174 179
228 194 175 200 210 173 212 154 138 135 127 63 0 176 282 290 260 247 227 220 216 200 186 185 183 187 184 174 166 162 148 146 141 146 157 159 161 195 183 110 142 186 287 232
237 215 192 204 195 160 141 78 62 54 77 268 233 174 270 241 229 233 220 220 215 198 190 190 178 162 159 155 151 152 144 143 142 143 151 162 171 184 165 179 205 233 290 317
300 283 238 168 122 101 106 97 51 13 15 248 226 187 248 254 238 217 210 209 200 187 182 180 168 167 165 161 157 147 146 151 155 154 159 175 175 182 195 201 208 207 223 245
198 272 238 186 172 168 169 144 156 186 211 259 265 228 253 260 258 213 191 182 168 166 172 177 175 167 169 169 162 157 163 167 161 160 176 188 169 176 204 202 199 209 221 232
182 247 274 221 183 144 145 174 159 134 145 187 265 280 299 295 331 171 156 141 160 168 162 164 164 166 170 173 175 173 171 168 166 167 165 162 168 177 201 205 199 221 234 234
160 222 275 269 85 51 145 145 110 123 148 221 277 262 248 248 237 213 184 177 178 161 151 154 156 167 172 173 164 154 154 163 168 162 166 167 177 171 153 135 205 243 239 218
138 159 299 3 171 178 122 115 116 124 155 158 214 260 230 215 206 198 200 189 181 170 169 168 159 152 139 133 144 151 149 154 167 165 157 141 140 121 107 102 83 326 43 92
149 127 229 260 260 192 156 160 148 153 200 174 175 256 284 203 190 182 186 179 170 169 169 163 156 143 137 140 144 154 146 173 195 174 148 151 137 116 110 112 87 75 68 71
140 122 93 338 336 9 104 136 144 129 126 160 177 254 318 82 136 162 168 168 164 159 153 147 146 152 158 157 156 159 158 173 167 144 140 136 136 134 135 136 115 88 78 62
119 127 168 197 218 198 203 182 157 137 158 193 213 231 253 226 197 189 176 171 163 159 158 156 162 167 168 165 159 153 151 149 142 137 131 126 143 163 169 153 126 106 98 92
112 154 201 231 233 188 202 211 192 192 189 189 218 218 232 213 202 194 178 162 151 156 165 169 169 168 161 155 150 145 146 142 137 133 132 142 139 109 98 90 89 83 82 75
86 153 156 275 262 211 243 240 208 219 207 210 209 240 231 194 169 172 175 166 172 186 185 175 165 162 164 165 167 158 156 151 142 143 148 139 120 109 106 96 81 73 68 62
112 137 131 240 279 23 262 236 209 212 217 187 212 227 181 174 189 192 186 182 186 186 178 171 169 172 175 173 169 166 155 142 140 139 132 125 123 119 122 102 87 80 74 74
146 126 127 145 93 224 242 242 189 203 242 225 225 214 192 190 189 192 185 179 184 183 179 175 169 166 167 160 152 139 131 135 137 138 143 147 145 145 142 128 133 138 117 85
159 140 124 128 184 264 286 260 186 182 262 228 194 186 162 125 81 325 207 182 185 185 180 176 168 158 156 154 148 135 136 138 138 149 162 168 163 160 164 172 210 201 147 62
74 112 122 138 173 228 245 274 266 116 264 245 189 178 159 136 163 238 192 168 171 166 159 152 143 133 145 154 146 145 154 156 173 184 189 178 169 170 179 196 205 199 180 214
74 72 132 158 206 257 262 290 101 166 242 253 194 182 170 180 202 195 150 151 159 157 150 136 135 142 160 156 145 150 162 184 195 179 167 168 173 178 182 177 170 164 174 205
165 152 168 146 189 250 288 124 179 223 265 256 195 181 169 170 148 136 145 149 149 149 140 138 142 147 151 153 150 159 184 191 167 157 157 165 177 189 163 155 163 157 150 126
184 187 182 184 209 251 288 237 272 241 246 252 173 163 150 145 146 140 143 148 152 159 159 150 147 144 146 162 161 172 192 166 152 148 159 174 176 172 162 171 187 193 174 162
279 144 143 229 262 280 300 314 329 299 253 236 148 136 137 137 139 136 141 150 154 158 161 154 148 156 177 184 174 176 175 156 151 155 168 169 164 162 151 171 189 199 213 218
237 170 156 253 280 317 320 319 315 347 27 70 80 100 135 137 135 141 145 153 159 158 166 161 166 176 188 186 179 170 161 155 154 163 173 174 178 176 173 219 221 219 229 218
213 182 181 224 229 212 259 285 294 21 22 101 106 82 85 136 141 133 141 159 155 159 164 164 167 175 185 182 185 183 174 161 159 168 181 184 184 190 190 208 291 300 246 257